Find Starlink 4431

NORAD ID: 53486 Int'l Des: 2022-099 Owner: SPXS Country: US Constellation: starlink operational
LEOCIRCULARRETROGRADESSO

リアルタイム位置

3D地球を読み込み中...

Starlink 4431について

説明を読み込み中...

次回通過

Passes for default location (London). Set your location on the main map for personalized predictions.

高度履歴

Loading altitude history...

軌道要素

1 53486U 22099X 26122.26518029 .00008637 00000-0 33661-3 0 9990
2 53486 97.6053 243.7922 0001198 68.8893 291.2472 15.26211810204097
Epoch: May 2, 2026 • Age: 15 hours

現在のステータス

高度 500.9 km
速度 7.61 km/s
衛星直下点 -34.38°S, 123.53°W
打ち上げ日 Aug 12, 2022
運用期間 3.7 years
タイプ internet

技術仕様

分類 Payload
質量 300.00 kg
乾燥質量 275.00 kg
総質量 300.00 kg
長さ 0.20 m
直径 2.80 m
スパン 9.00 m
形状 Box + pan
製造者 SPXS
バスタイプ Starlink
フェーズステータス In Orbit
所有者/国 SPXS/US

Most Searched